Zurück zum Katalog

STARLINK-31807

AktivKommunikationVLEO
NORAD 59639·PAYLOAD·🇺🇸 United States

Gestartet May 3, 2024 von Cape Canaveral Space Force Station

Loading…

Nächste Überflüge (nächste 24 Stunden)

TLE

AktuellSource: CelesTrak SupGP

Epoche: Sep 15, 2026, 02:48 UTC

1 59639C 24082J   26258.11715278  .00022477  00000+0  81413-3 0  2582
2 59639  43.0018 150.3198 0001317 269.9846 282.9474 15.27567159    18

Verfolge STARLINK-31807 in Echtzeit mit AllMySat

Download on the App Store